Weather History for KSJN - May, 2013

Change the Weather History Date:

Sunday, May 19, 2013

  Actual Average Record
Temperature  
Mean Temperature 53 °F -  
Max Temperature 73 °F - - ()
Min Temperature 33 °F - - ()
Degree Days  
Heating Degree Days 12    
Growing Degree Days 3 (Base 50)    
Moisture  
Dew Point 25 °F    
Average Humidity 25    
Maximum Humidity 63    
Minimum Humidity 6    
Precipitation  
Precipitation 0.00 in - - ()
Sea Level Pressure  
Sea Level Pressure 29.83 in    
Wind  
Wind Speed 9 mph (West)    
Max Wind Speed 24 mph    
Max Gust Speed 31 mph    
Visibility 10 miles    
Events      
T = Trace of Precipitation, MM = Missing Value Source: NWS Daily Summary

Daily Weather History Graph

Daily Weather History Graph

Search for Another Location

Airport or City:

Trip Planner

Search our weather history database for the weather conditions in past years. The results will help you decide how hot, cold, wet, or windy it might be!

Date:

Astronomy

May. 19, 2013 Rise Set
Actual Time 5:12 AM MST 7:16 PM MST
Civil Twilight 4:43 AM MST 7:44 PM MST
Nautical Twilight 4:09 AM MST 8:19 PM MST
Astronomical Twilight 3:32 AM MST 8:56 PM MST
Moon 1:37 PM MST (5/19) 1:22 AM MST (5/19)
Length of Visible Light 15h 00m
Length of Day
14h 04m
Waxing Gibbous, 66% of the Moon is Illuminated
May 19
Waxing Gibbous
May 24
Full
May 31
Last Quarter
Jun 8
New
Jun 16
First Quarter

Hourly Weather History & Observations

Time (MST) Temp. Dew Point Humidity Pressure Visibility Wind Dir Wind Speed Gust Speed Precip Events Conditions
12:54 AM 54.0 °F 27.0 °F 35% 29.81 in 10.0 mi West 6.9 mph - N/A   Scattered Clouds
1:54 AM 55.0 °F 28.0 °F 35% 29.79 in 10.0 mi SW 5.8 mph - N/A   Overcast
2:54 AM 51.1 °F 26.1 °F 38% 29.80 in 10.0 mi NNW 5.8 mph - N/A   Clear
3:54 AM 50.0 °F 26.1 °F 39% 29.81 in 10.0 mi SSW 3.5 mph - N/A   Clear
4:54 AM 50.0 °F 26.6 °F 40% 30.04 in 10.0 mi SW 6.9 mph - N/A   Clear
5:54 AM 50.0 °F 26.1 °F 39% 29.85 in 10.0 mi Variable 5.8 mph - N/A   Clear
6:54 AM 53.1 °F 26.1 °F 35% 29.86 in 10.0 mi Calm Calm - N/A   Clear
7:54 AM 57.9 °F 27.0 °F 31% 29.86 in 10.0 mi Calm Calm - N/A   Clear
8:54 AM 62.1 °F 28.9 °F 29% 29.85 in 10.0 mi Calm Calm - N/A   Clear
9:54 AM 64.9 °F 28.9 °F 26% 29.84 in 10.0 mi Calm Calm - N/A   Clear
10:54 AM 69.1 °F 28.0 °F 22% 29.83 in 10.0 mi NW 10.4 mph 17.3 mph N/A   Clear
11:54 AM 71.6 °F 21.2 °F 15% 30.01 in 10.0 mi West 16.1 mph 24.2 mph N/A   Scattered Clouds
12:54 PM 71.6 °F 19.4 °F 14% 29.98 in 10.0 mi West 4.6 mph 24.2 mph N/A   Partly Cloudy
1:54 PM 75.0 °F 21.9 °F 14% 29.72 in 10.0 mi SW 13.8 mph 17.3 mph N/A   Partly Cloudy
2:54 PM 75.9 °F 23.0 °F 14% 29.69 in 10.0 mi WSW 17.3 mph 23.0 mph N/A   Mostly Cloudy
3:28 PM 75.2 °F 21.2 °F 13% 29.91 in 10.0 mi West 16.1 mph 28.8 mph N/A   Partly Cloudy
3:54 PM 78.1 °F 16.0 °F 10% 29.67 in 10.0 mi West 24.2 mph 29.9 mph N/A   Partly Cloudy
4:54 PM 75.0 °F 21.9 °F 14% 29.67 in 10.0 mi WSW 15.0 mph 27.6 mph N/A   Scattered Clouds
5:54 PM 73.0 °F 24.1 °F 16% 29.67 in 10.0 mi West 17.3 mph 29.9 mph N/A   Mostly Cloudy
6:54 PM 71.1 °F 25.0 °F 18% 29.69 in 10.0 mi West 23.0 mph 31.1 mph N/A   Partly Cloudy
7:54 PM 68.0 °F 26.1 °F 21% 29.71 in 10.0 mi SW 19.6 mph 27.6 mph N/A   Clear
8:54 PM 64.4 °F 26.6 °F 24% 29.95 in 10.0 mi SW 17.3 mph 28.8 mph N/A   Overcast
9:54 PM 64.0 °F 28.0 °F 26% 29.76 in 10.0 mi West 20.7 mph 28.8 mph N/A   Mostly Cloudy
10:26 PM 62.6 °F 30.2 °F 30% 30.00 in 10.0 mi North 12.7 mph 23.0 mph N/A   Overcast
10:54 PM 60.1 °F 30.0 °F 32% 29.78 in 10.0 mi NNW 8.1 mph - N/A   Overcast
11:54 PM 55.9 °F 28.9 °F 36% 29.80 in 10.0 mi WSW 3.5 mph - N/A   Mostly Cloudy